Location: Cz?stochówka
(50.8142°N, 19.0915°E)
Time: 06:00:37
(UTC+00:00)

Meteor 2-10 Rocket - Pass Details

Date: 13 January 2026
Orbit: 733 x 881 km, 81.2° (Epoch: 10 February)

Event Time Altitude Azimuth Distance (km) Brightness Sun altitude
Rises 04:34:25 0° 184° (S) 3,163 6.8 -19.2°
Reaches altitude 10° 04:36:42 10° 182° (S) 2,255 6.0 -18.9°
Maximum altitude 04:41:44 73° 99° (E) 801 3.7 -18.1°
Drops below altitude 10° 04:46:59 10° 16° (NNE) 2,349 6.1 -17.3°
Sets 04:49:25 0° 14° (NNE) 3,305 6.8 -16.9°
